TimeEDT,TemperatureF,Dew PointF,Humidity,Sea Level PressureIn,VisibilityMPH,Wind Direction,Wind SpeedMPH,Gust SpeedMPH,PrecipitationIn,Events,Conditions,WindDirDegrees,DateUTC
12:04 AM,64.4,64.4,100,30.20,0.8,Calm,Calm,-,N/A,,Clear,0,2012-10-05 04:04:00
12:07 AM,64.4,62.6,94,30.20,0.2,Calm,Calm,-,N/A,Fog,Fog,0,2012-10-05 04:07:00
12:38 AM,64.4,64.4,100,30.19,1.0,Calm,Calm,-,N/A,,Mist,0,2012-10-05 04:38:00
12:50 AM,64.4,62.6,94,30.19,0.2,Calm,Calm,-,N/A,Fog,Fog,0,2012-10-05 04:50:00
12:51 AM,64.0,63.0,96,30.19,0.2,Calm,Calm,-,N/A,Fog,Fog,0,2012-10-05 04:51:00
1:15 AM,64.4,64.4,100,30.18,0.2,Calm,Calm,-,N/A,Fog,Fog,0,2012-10-05 05:15:00
1:33 AM,64.4,64.4,100,30.18,0.5,Calm,Calm,-,N/A,Fog,Fog,0,2012-10-05 05:33:00
1:42 AM,64.4,64.4,100,30.18,0.2,Calm,Calm,-,N/A,Fog,Fog,0,2012-10-05 05:42:00
1:49 AM,64.4,64.4,100,30.18,0.5,Calm,Calm,-,N/A,Fog,Fog,0,2012-10-05 05:49:00
1:53 AM,64.0,64.0,100,30.17,0.5,Calm,Calm,-,N/A,Fog,Fog,0,2012-10-05 05:53:00
2:12 AM,64.4,64.4,100,30.18,0.2,Calm,Calm,-,N/A,Fog,Fog,0,2012-10-05 06:12:00
2:23 AM,64.4,64.4,100,30.18,0.5,Calm,Calm,-,N/A,Fog,Fog,0,2012-10-05 06:23:00
2:44 AM,64.4,62.6,94,30.17,0.2,Calm,Calm,-,N/A,Fog,Fog,0,2012-10-05 06:44:00
2:53 AM,64.0,63.0,96,30.17,0.2,Calm,Calm,-,N/A,Fog,Fog,0,2012-10-05 06:53:00
3:05 AM,64.4,62.6,94,30.17,0.5,Calm,Calm,-,N/A,Fog,Fog,0,2012-10-05 07:05:00
3:12 AM,64.4,62.6,94,30.17,0.8,Calm,Calm,-,N/A,,Mist,0,2012-10-05 07:12:00
3:26 AM,64.4,64.4,100,30.16,0.2,Calm,Calm,-,N/A,Fog,Fog,0,2012-10-05 07:26:00
3:39 AM,64.4,64.4,100,30.16,0.5,Calm,Calm,-,N/A,Fog,Fog,0,2012-10-05 07:39:00
3:48 AM,64.4,64.4,100,30.15,0.2,Calm,Calm,-,N/A,Fog,Fog,0,2012-10-05 07:48:00
3:53 AM,64.4,64.4,100,30.16,0.5,Calm,Calm,-,N/A,Fog,Fog,0,2012-10-05 07:53:00
4:06 AM,64.4,64.4,100,30.15,2.0,Calm,Calm,-,N/A,,Overcast,0,2012-10-05 08:06:00
4:15 AM,64.4,64.4,100,30.15,4.0,Calm,Calm,-,N/A,,Overcast,0,2012-10-05 08:15:00
4:18 AM,64.4,64.4,100,30.15,1.2,Calm,Calm,-,N/A,,Overcast,0,2012-10-05 08:18:00
4:25 AM,64.4,64.4,100,30.15,0.2,Calm,Calm,-,N/A,Fog,Fog,0,2012-10-05 08:25:00
4:46 AM,64.4,62.6,94,30.15,0.5,Calm,Calm,-,N/A,Fog,Fog,0,2012-10-05 08:46:00
4:53 AM,64.0,64.0,100,30.15,0.2,Calm,Calm,-,N/A,Fog,Fog,0,2012-10-05 08:53:00
5:05 AM,64.4,64.4,100,30.16,0.5,Calm,Calm,-,N/A,Fog,Fog,0,2012-10-05 09:05:00
5:20 AM,64.4,64.4,100,30.16,2.0,Calm,Calm,-,N/A,,Overcast,0,2012-10-05 09:20:00
5:25 AM,64.4,64.4,100,30.16,0.8,Calm,Calm,-,N/A,,Mist,0,2012-10-05 09:25:00
5:35 AM,64.4,64.4,100,30.16,0.2,Calm,Calm,-,N/A,Fog,Fog,0,2012-10-05 09:35:00
5:53 AM,64.9,64.9,100,30.16,0.2,Calm,Calm,-,N/A,Fog,Fog,0,2012-10-05 09:53:00
6:53 AM,64.9,64.0,97,30.17,0.2,Calm,Calm,-,N/A,Fog,Fog,0,2012-10-05 10:53:00
7:53 AM,64.9,64.0,97,30.17,0.2,Calm,Calm,-,N/A,Fog,Fog,0,2012-10-05 11:53:00
8:50 AM,64.4,64.4,100,30.18,0.2,North,4.6,-,N/A,Fog,Fog,350,2012-10-05 12:50:00
8:53 AM,64.9,64.0,97,30.17,0.2,North,4.6,-,N/A,Fog,Fog,350,2012-10-05 12:53:00
9:15 AM,64.4,64.4,100,30.18,0.2,NNW,3.5,-,N/A,Fog,Fog,330,2012-10-05 13:15:00
9:41 AM,66.2,64.4,94,30.18,1.0,North,3.5,-,N/A,,Overcast,350,2012-10-05 13:41:00
9:51 AM,66.2,64.4,94,30.18,3.0,NNW,4.6,-,N/A,,Overcast,340,2012-10-05 13:51:00
9:52 AM,66.0,64.9,96,30.18,3.0,NNW,4.6,-,N/A,,Overcast,340,2012-10-05 13:52:00
10:53 AM,66.9,64.9,93,30.17,5.0,NNW,3.5,-,N/A,,Scattered Clouds,340,2012-10-05 14:53:00
11:53 AM,71.1,64.9,81,30.16,6.0,Calm,Calm,-,N/A,,Haze,0,2012-10-05 15:53:00
12:53 PM,73.0,64.9,76,30.15,9.0,Calm,Calm,-,N/A,,Clear,0,2012-10-05 16:53:00
1:53 PM,75.9,64.9,69,30.12,10.0,Calm,Calm,-,N/A,,Clear,0,2012-10-05 17:53:00
2:53 PM,78.1,61.0,56,30.09,10.0,SE,3.5,-,N/A,,Clear,140,2012-10-05 18:53:00
3:53 PM,79.0,62.1,56,30.07,10.0,SSE,4.6,-,N/A,,Clear,150,2012-10-05 19:53:00
4:53 PM,78.1,62.1,58,30.04,10.0,SSE,3.5,-,N/A,,Clear,160,2012-10-05 20:53:00
5:53 PM,79.0,64.0,60,30.04,10.0,SSE,5.8,-,N/A,,Clear,150,2012-10-05 21:53:00
6:53 PM,73.9,66.0,76,30.03,10.0,SSE,3.5,-,N/A,,Clear,150,2012-10-05 22:53:00
7:53 PM,66.9,66.0,97,30.03,5.0,Calm,Calm,-,0.00,,Clear,0,2012-10-05 23:53:00
8:53 PM,66.0,64.0,93,30.04,105.0,Calm,Calm,-,N/A,,Clear,0,2012-10-06 00:53:00
9:53 PM,64.0,63.0,96,30.04,10.0,Calm,Calm,-,N/A,,Clear,0,2012-10-06 01:53:00
10:12 PM,64.4,64.4,100,30.05,1.5,Calm,Calm,-,N/A,,Clear,0,2012-10-06 02:12:00
10:20 PM,64.4,62.6,94,30.04,7.0,Calm,Calm,-,N/A,,Clear,0,2012-10-06 02:20:00
10:53 PM,64.0,63.0,96,30.04,7.0,Calm,Calm,-,N/A,,Clear,0,2012-10-06 02:53:00
11:00 PM,62.6,62.6,100,30.04,0.8,Calm,Calm,-,N/A,,Mist,0,2012-10-06 03:00:00
11:02 PM,62.6,62.6,100,30.04,2.0,Calm,Calm,-,N/A,,Scattered Clouds,0,2012-10-06 03:02:00
11:09 PM,62.6,62.6,100,30.04,5.0,Calm,Calm,-,N/A,,Partly Cloudy,0,2012-10-06 03:09:00
11:53 PM,62.1,62.1,100,30.04,4.0,Calm,Calm,-,N/A,,Clear,0,2012-10-06 03:53:00